Location: Seven Kings
(51.5667°N, 0.1000°E)
Time: 03:35:11
(UTC+00:00)

H-2A R/B - Pass Details

Date: 29 October 2020
Orbit: 733 x 837 km, 98.2° (Epoch: 27 November)

Event Time Altitude Azimuth Distance (km) Brightness Sun altitude
Rises 19:37:25 0° 188° (S) 3,359 5.3 -28.4°
Reaches altitude 10° 19:39:55 10° 196° (SSW) 2,438 4.6 -28.8°
Maximum altitude 19:44:58 38° 264° (W) 1,256 3.5 -29.5°
Drops below altitude 10° 19:50:03 10° 332° (NNW) 2,461 5.1 -30.3°
Sets 19:52:36 0° 341° (NNW) 3,395 5.8 -30.6°
